Regional Weather Roundup
Issued by NWS

Home | Current Version | Previous Version | Text Only | Print | Product List | Glossary Off
Versions: 1 2 3 4 5 6 7 8 9 10 11 12 13 14 15 16 17 18 19 20 21 22 23 24 25 26 27 28 29 30 31 32 33 34 35 36 37 38 39 40 41 42 43 44 45 46 47 48 49 50

000
ASUS43 KIND 192209
RWRIN

WEATHER ROUNDUP FOR INDIANA
NATIONAL WEATHER SERVICE INDIANAPOLIS IN
500 PM EST THU JAN 19 2017

NOTE: "FAIR" INDICATES FEW OR NO CLOUDS BELOW 12,000 FEET WITH NO
SIGNIFICANT WEATHER AND/OR OBSTRUCTIONS TO VISIBILITY.

* - STATION DOES NOT REPORT WEATHER SUCH AS PRECIPITATION OR FOG.

+ - STATION NOT QUALITY CONTROLLED BY THE NATIONAL WEATHER SERVICE.
    USE DATA WITH CAUTION...ESPECIALLY DEWPOINT AND RELATIVE
    HUMIDITY OBSERVATIONS.

INZ001>003-010>013-019-020-192300-
NORTHWEST INDIANA

CITY           SKY/WX    TMP DP  RH WIND       PRES   REMARKS
GARY /AIRPORT/ CLOUDY    41  36  81 E7        29.88F HAZE
KNOX *+        CLOUDY    37  23  56 E9        29.89S
LA PORTE +     CLOUDY    38  36  92 E8        29.90S FOG
MICHIGAN CITY+ CLOUDY    37  37 100 SE5       29.90S FOG
MONTICELLO +   LGT RAIN  40  37  90 E6        29.87F
RENSSELAER +   LGT RAIN  39  37  93 E7        29.88S
VALPARAISO     CLOUDY    40  37  89 E10       29.88F FOG

$$

LMZ046-743>745-192300-
SOUTHERN LAKE MICHIGAN

STATION/POSITION TIME  TEMP    WIND        PRES    WAVE
                       AIR SEA DIR/SP/G            HT
                 (UTC) (F)     (DEG/KT/KT) (MB)    (FT)
BURNS HARBOR     2140   40     130/  5/ 10 1012.9F
MICHIGAN CITY    2140   40      70/  5/  7   N/A

$$

INZ004-005-014>016-021>024-192300-
NORTH CENTRAL INDIANA

CITY           SKY/WX    TMP DP  RH WIND       PRES   REMARKS
ELKHART        MOCLDY    39  36  87 SE6       29.91F FOG
GOSHEN         CLOUDY    39  34  82 SE7       29.91F HAZE
LOGANSPORT +   LGT RAIN  37  36  93 E8        29.88F
PERU/GRISSOM   LGT RAIN  40  40  99 E10       29.86F
ROCHESTER +    CLOUDY    41  37  87 E10       29.90F FOG
SOUTH BEND     CLOUDY    38  35  89 SE9       29.90F
WARSAW +       MOCLDY    37  32  81 SE5       29.92R HAZE

$$

INZ006>009-017-018-025>027-192300-
NORTHEAST INDIANA

CITY           SKY/WX    TMP DP  RH WIND       PRES   REMARKS
ANGOLA *+      PTCLDY    36  36 100 SE6       29.92S
AUBURN +       CLOUDY    37  34  87 E3        29.93F FOG
FORT WAYNE     CLOUDY    40  35  83 E8        29.93F
HUNTINGTON +   CLOUDY    39  37  94 E7        29.92S
KENDALLVILLE + CLOUDY    37  35  93 SE6       29.92F FOG

$$

INZ028-029-035-036-043>045-051>053-192300-
WEST CENTRAL INDIANA

CITY           SKY/WX    TMP DP  RH WIND       PRES   REMARKS
CRAWFORDSVL +  FLURRIES  42  42 100 E5        29.83F
GREENCASTLE +  RAIN      43  41  93 E6        29.83F
LAFAYETTE      CLOUDY    42  40  92 E13       29.84F FOG
TERRE HAUTE    RAIN      44  40  85 E8        29.81F FOG

$$

INZ030>032-037>040-046>048-054>057-064-065-192300-
CENTRAL INDIANA

CITY           SKY/WX    TMP DP  RH WIND       PRES   REMARKS
CP ATTERBURY + CLOUDY    46  41  81 SE5       29.85S
COLUMBUS       CLOUDY    46  43  87 E8        29.84F
FRANKFORT +    LGT RAIN  44  42  91 E8        29.87F
GREENWOOD *+   CLOUDY    47  42  84 E6        29.84F
INDIANAPOLIS   CLOUDY    46  39  76 E10       29.83F
-EAGLE CREEK   CLOUDY    47  39  74 E7        29.83F
KOKOMO +       LGT RAIN  41  38  89 E13       29.88F
MARION +       CLOUDY    41  37  87 E8        29.90F
MT COMFORT *+  CLOUDY    45  39  81 E8        29.85F
SHELBYVILLE    CLOUDY    47  39  74 E13       29.83F
ZIONSVILLE +   LGT RAIN  43  40  87 E8        29.85F

$$

INZ033-034-041-042-049-050-058-059-192300-
EAST CENTRAL INDIANA

CITY           SKY/WX    TMP DP  RH WIND       PRES   REMARKS
MUNCIE         CLOUDY    45  40  82 E8        29.89F

$$

INZ060-061-067>069-081>083-085>088-192300-
SOUTHWEST INDIANA

CITY           SKY/WX    TMP DP  RH WIND       PRES   REMARKS
EVANSVILLE     CLOUDY    50  47  89 E6        29.78F
HUNTINGBURG *+ CLOUDY    48  46  93 E7        29.80F
WASHINGTON +   LGT RAIN  46  44  94 E7        29.80S

$$

INZ062-063-066-070>080-084-089>092-192300-
SOUTH CENTRAL AND SOUTHEAST INDIANA

CITY           SKY/WX    TMP DP  RH WIND       PRES   REMARKS
BLOOMINGTON    RAIN      46  40  79 VRB3      29.83R
MADISON *+     CLOUDY    48  41  76 E6        29.87F
NORTH VERNON + CLOUDY    50  39  66 E7        29.86F
SEYMOUR +      CLOUDY    50  41  71 SE5       29.84F

$$




USA.gov is the U.S. government's official web portal to all federal, state and local government web resources and services.